François Lagadeuc

François Lagadeuc

Statistiques 2026

  • Courses courues : 314
  • Nb de victoires : 46
  • Nb de places : 86
  • Écart gagnant : 8
  • Réussite à la gagne : 15%
  • Réussite à la place : 27%
Musique : 5m 4a 0m 0a 0a 3a 2a 8a 1a 8a 1a 5m Da 8a Da 4a 6a Da
DateRangCatégorieAlloc.Dist.HippodromeChevalRed. KmSpé.
15/08/22 0 Trot 17 000€ 2 850m Carentan Ipotek Attelé
15/08/22 1 Trot 17 000€ 2 875m Carentan Glenac de l'Iton TNC Attelé
24/08/22 D Trot 59 000€ 2 850m Vincennes Benz As Attelé lire

A rapidement été sanctionné.

31/08/22 7 Trot 18 000€ 2 875m Vincennes Huna Lila 1'15"1 Attelé
02/09/22 4 Trot 44 000€ 2 850m Vincennes Junior de Play 1'15"7 Attelé
03/09/22 0 Trot 65 000€ 2 850m Vincennes Cadeau de la Vie Attelé lire

N'a joué aucun rôle utile.

03/09/22 D Trot 44 000€ 2 850m Vincennes Icare des Forges Attelé
06/09/22 1 Trot 90 000€ 2 850m Vincennes Fantaisie 1'13"1 Monté lire

Principale animatrice, a su se montrer nettement la plus forte pour finir.

06/09/22 0 Trot 44 000€ 2 850m Vincennes Jamila du Porhoet Attelé
09/09/22 0 Trot 13 000€ 2 850m Laval Jag d'Urzy Attelé
09/09/22 1 Trot 13 000€ 2 850m Laval Julius du Theil 1'17"4 Attelé
09/09/22 9 Trot 17 000€ 2 850m Laval Hilton Berry 1'16"1 Attelé
09/09/22 D Trot 24 000€ 2 875m Laval Gagnante Mesloise Attelé
09/09/22 0 Trot 15 000€ 2 850m Laval Impulsion Attelé
10/09/22 D Trot 70 000€ 2 850m Vincennes Sahara Jaeburn Attelé
10/09/22 4 Trot 65 000€ 2 850m Vincennes Expert Delta 1'14"9 Attelé lire

Après avoir évolué en retrait, a conclu fort honorablement.

10/09/22 4 Trot 61 000€ 2 850m Vincennes I Want You 1'13"9 Attelé
16/09/22 8 Trot 57 000€ 2 850m Vincennes Fute Burois 1'14"5 Attelé lire

Après avoir figuré au sein du peloton, a conclu convenablement.

19/09/22 6 Trot 20 000€ 2 850m Laval Imagine Maisons 1'15"4 Attelé
19/09/22 4 Trot 38 000€ 2 850m Laval Evita Madrik 1'14"4 Attelé
22/09/22 5 Trot 44 000€ 2 850m Vincennes Galopin de Conde 1'15"2 Monté lire

Après avoir attendu en bonne position, a progressivement plafonné pour finir.

25/09/22 D Trot 65 000€ 2 850m Vincennes Express de l'Iton Attelé lire

Progressivement rapproché dans la montée, à ensuite fait illusion avant de marquer le pas dans la ligne droite et de se désunir.

30/09/22 1 Trot 49 000€ 2 875m Vincennes Drop de l'Iton 1'14"2 Attelé lire

Progressivement rapproché en épaisseur, a su se montrer le plus fort pour finir.

05/10/22 5 Trot 100 000€ 2 850m Laval Elite de Jiel 1'13"9 Attelé lire

Longtemps dans la dernière partie du peloton, a conclu de bonne manière.

05/10/22 1 Trot 30 000€ 2 875m Laval Ideal du Rocher 1'14"3 Attelé
05/10/22 0 Trot 26 000€ 2 850m Laval Happy d'Aimte Attelé
05/10/22 4 Trot 29 000€ 2 875m Laval Elixir Wind 1'15"3 Attelé
07/10/22 6 Trot 44 000€ 2 850m Vincennes Gallica du Vinois 1'15"2 Attelé lire

Après avoir figuré au sein du peloton, a conclu convenablement.

07/10/22 5 Trot 44 000€ 2 875m Vincennes Huelva Duperouzel 1'14"6 Attelé
08/10/22 9 Trot 33 000€ 2 850m Laval Ecume de Furetais 1'15"0 Attelé
08/10/22 6 Trot 23 000€ 2 850m Laval Ginka Manathis 1'14"7 Attelé
08/10/22 2 Trot 20 000€ 2 850m Laval Ivoire d'Authise 1'15"0 Attelé
08/10/22 1 Trot 20 000€ 2 850m Laval Isis de Change 1'14"7 Attelé
08/10/22 9 Trot 20 000€ 2 850m Laval I Am de la Cour 1'17"4 Monté
08/10/22 D Trot 20 000€ 2 850m Laval Jaguar Maya Attelé
14/10/22 4 Trot 65 000€ 2 875m Vincennes Douglas du Pont 1'13"9 Attelé
14/10/22 1 Trot 90 000€ 2 850m Vincennes Fantaisie 1'11"9 Monté lire

Principale animatrice, a su se montrer la plus forte pour finir.

25/10/22 7 Trot 44 000€ 2 850m Vincennes Hommage de Tillard 1'14"0 Attelé
25/10/22 1 Trot 44 000€ 2 850m Vincennes Joli Cheri 1'14"5 Attelé
28/10/22 0 Trot 44 000€ 2 850m Vincennes Hera de l'Ouest Attelé
28/10/22 1 Trot 57 000€ 2 875m Vincennes Fashion Touch 1'13"7 Attelé lire

Après avoir figuré au sein du peloton, a su se montrer facilement le plus fort dans la phase finale.

28/10/22 D Trot 80 000€ 2 850m Vincennes Ici C'Est Paris Monté
01/11/22 5 Trot 20 000€ 2 850m Laval Indiana d'Amour 1'15"8 Attelé
01/11/22 8 Trot 20 000€ 2 850m Laval Indy Stryck 1'15"7 Attelé
01/11/22 D Trot 70 000€ 2 850m Laval Sahara Jaeburn Attelé lire

A rapidement été sanctionné.

01/11/22 5 Trot 30 000€ 2 850m Laval Hit Perrine 1'15"3 Attelé
01/11/22 4 Trot 27 000€ 2 875m Laval Grand Sourire 1'14"7 Attelé lire

Après avoir figuré, a bien tenu sa partie jusqu'à la fin.

01/11/22 D Trot 53 000€ 2 850m Laval Fighter Kiss Monté
01/11/22 8 Trot 30 000€ 2 875m Laval Jag Stryck 1'15"6 Attelé
03/11/22 D Trot 39 000€ 2 850m Vincennes Icare des Forges Attelé